San Francisco International Airport San Francisco US
ICAO: KSFO
IATA: SFO
Category: Large
Scheduled Services: Yes

Elevation: 13 ft
TransAlt. 18000 ft.

Airport Communications:
NORCAL APP:125.35
ATIS:113.7
AWOS 1:118.05
CLNC DEL:118.2
NORCAL DEP:120.9
GND:121.8
USCG:34.5
TWR:120.5
UNICOM:122.95

KSFO Zoom In..

If you have problems with the map follow the link
https://www.worldairports.se/pages/airport.php?
ICAO=KSFO

Runways:

(A) RW 01L length 7500 ft width 200 ft
---- / hdg 14

(B) RW 01R length 8646 ft width 200 ft
---- / hdg 14

(C) RW 10L length 11870 ft width 200 ft
---- / hdg 104

(D) RW 10R length 11381 ft width 200 ft
---- / hdg 104

(E) RW 19L length 8646 ft width 200 ft
ILS 108.90 / hdg 194

(F) RW 19R length 7500 ft width 200 ft
---- / hdg 194

(G) RW 28L length 11381 ft width 200 ft
ILS 109.55 / hdg 284

(H) RW 28R length 11870 ft width 200 ft
ILS 111.70 / hdg 284

Location; KSFO
Day. 18 / Time. 02.56 Zulu
* Altimeter: 30.28
* Temperature: 11° c. 51.8°f.
* Wind from: 000° Speed 00 kn.
Dewpoint: 04° c.
Visibility: 10 Statute Miles.
Clouds: Broken 18000 ft.

KSFO 180256Z 00000KT 10SM BKN180 11/04 A3028 RMK AO2 SLP254 T01110039 58003


Wind - Calm.

 
 
jpsmedia worldairports.se 2020   terms of use